Weather Roundup
Issued by NWS Chicago, IL

Home | Current Version | Previous Version | Graphics & Text | Print | Product List | Glossary On
Versions: 1 2 3 4 5 6 7 8 9 10 11 12 13 14 15 16 17 18 19 20 21 22 23 24 25 26 27 28 29 30 31 32 33 34 35 36 37 38 39 40 41 42 43 44 45 46 47 48 49 50
000
NZUS59 KLOT 250804
HRRLOT

CHICAGO AREA WEATHER ROUNDUP
NATIONAL WEATHER SERVICE CHICAGO/ROMEOVILLE IL
300 AM CDT SUN JUN 25 2017

NOTE: "FAIR" INDICATES FEW OR NO CLOUDS BELOW 12,000 FEET WITH NO
SIGNIFICANT WEATHER AND/OR OBSTRUCTIONS TO VISIBILITY.

* THESE STATIONS ARE NOT UNDER NWS QUALITY CONTROL. THEY ALSO MAY NOT
  REPORT WEATHER SUCH AS PRECIPITATION OR FOG.

ILZ005-006-012>014-019>023-250900-
NORTHEAST ILLINOIS

CITY           SKY/WX    TMP DP  RH WIND       PRES   REMARKS
OHARE          PTCLDY    57  47  69 W9        30.05S
MIDWAY         CLEAR     60  47  61 W10       30.05S
AURORA         CLEAR     52  48  86 W6        30.08S
LANSING*       MOCLDY    59  46  62 W8        30.06R
JOLIET*        CLEAR     58  51  76 CALM      30.08S
WAUKEGAN       CLEAR     54  48  80 VRB3      30.03S
DUPAGE AIRPORT CLEAR     56  49  77 W8        30.06S
WHEELING       CLEAR     56  50  80 W6        30.06S
MORRIS*        CLEAR     55  49  82 W3        30.07S
LEWIS AIRPORT* CLEAR     56  47  71 NW7       30.07S
NORTHERLY ISL    N/A     60  45  57 W9          N/A
$$

WIZ051-052-058>065-066-070>072-250900-
SOUTHEAST WISCONSIN

CITY           SKY/WX    TMP DP  RH WIND       PRES   REMARKS
MILWAUKEE      CLEAR     55  49  80 W9        30.02S
KENOSHA*       CLEAR     52  47  83 W9        30.03F
RACINE*        CLEAR     53  48  83 W6        30.04F
WAUKESHA       CLEAR     50  45  81 W9        30.03S
$$

INZ001>003-010>013-019-020-250900-
NORTHWEST INDIANA

CITY           SKY/WX    TMP DP  RH WIND       PRES   REMARKS
GARY*          MOCLDY    63  44  49 W13G20    30.06R
MICHIGAN CITY* NOT AVBL
RENSSELAER*    NOT AVBL
VALPARAISO     CLEAR     59  49  69 W8        30.05S
$$

LMZ740>746-250900-
SOUTHERN LAKE MICHIGAN

STATION/POSITION TIME  SKY/WX   TEMP WIND        PRES    VSBY
                                AIR  DIR/SP/G
                 (UTC)          (F)  (DEG/KT/KT) (MB)    (MI)
HARRISON CRIB    0740            61  290/ 17/ 19   N/A
BURNHAM HARBOR   0800            60                N/A
CALUMET HARBOR   0718            63  270/  5/  9 1017.0
BURNS HARBOR     0740            64  250/ 10/ 12 1017.6F
MICHIGAN CITY    0740            65  240/ 18/ 21   N/A
$$

ABBREVIATIONS USED IN REMARKS
   TC - TEMPERATURE IN CELSIUS
  WCI - WIND CHILL INDEX
   HX - HEAT INDEX
  VSB - VISIBILITY
$$




USA.gov is the U.S. government's official web portal to all federal, state and local government web resources and services.